When you browse on this site, cookies collect data to enhance your experience and personalize the content and advertising you see.
Visit our Privacy Policy to learn more. By continuing to use the site, you agree to this use of cookies and data.
  • In United Kingdom
  • List of Countries
  • For 7 days
  • Water Temperature
  • Satellite Maps
  • Weather Map
  • Weather Widgets
  • user-avatar
    Login

    Hourly Weather Adelaide

    Today, 23 April, Tuesday

    Time Temperature Precipitation Wind Pressure Humidity
    00:00 +13°C° 0 mm 3 mps 766 mmHg 77%
    01:00 +13°C° 0 mm 2 mps 766 mmHg 78%
    02:00 +13°C° 0 mm 2 mps 766 mmHg 79%
    03:00 +13°C° 0 mm 2 mps 766 mmHg 80%
    04:00 +13°C° 0 mm 2 mps 766 mmHg 80%
    05:00 +12°C° 0 mm 2 mps 766 mmHg 80%
    06:00 +12°C° 0 mm 2 mps 767 mmHg 80%
    07:00 +14°C° 0 mm 2 mps 767 mmHg 72%
    08:00 +16°C° 0 mm 2 mps 767 mmHg 64%
    09:00 +19°C° 0 mm 1 mps 767 mmHg 52%
    10:00 +19°C° 0 mm 2 mps 767 mmHg 47%
    11:00 +20°C° 0 mm 2 mps 766 mmHg 43%
    12:00 +23°C° 0 mm 2 mps 766 mmHg 38%
    13:00 +21°C° 0 mm 3 mps 766 mmHg 40%
    14:00 +21°C° 0 mm 3 mps 765 mmHg 41%
    15:00 +21°C° 0 mm 3 mps 765 mmHg 43%
    16:00 +20°C° 0 mm 3 mps 765 mmHg 50%
    17:00 +18°C° 0 mm 4 mps 765 mmHg 57%
    18:00 +15°C° 0 mm 4 mps 766 mmHg 63%
    19:00 +15°C° 0 mm 4 mps 766 mmHg 68%
    20:00 +14°C° 0 mm 3 mps 766 mmHg 74%
    21:00 +14°C° 0 mm 3 mps 766 mmHg 79%
    22:00 +14°C° 0 mm 3 mps 766 mmHg 81%
    23:00 +14°C° 0 mm 3 mps 766 mmHg 84%

    Tomorrow, 24 April, Wednesday

    Time Temperature Precipitation Wind Pressure Humidity
    00:00 +13°C° 0 mm 3 mps 766 mmHg 87%
    01:00 +13°C° 0 mm 3 mps 765 mmHg 88%
    02:00 +14°C° 0 mm 2 mps 765 mmHg 89%
    03:00 +14°C° 0 mm 2 mps 765 mmHg 90%
    04:00 +14°C° 0 mm 2 mps 765 mmHg 90%
    05:00 +14°C° 0 mm 2 mps 765 mmHg 90%
    06:00 +14°C° 0 mm 1 mps 765 mmHg 90%
    07:00 +15°C° 0 mm 2 mps 766 mmHg 80%
    08:00 +17°C° 0 mm 2 mps 766 mmHg 71%
    09:00 +19°C° 0 mm 2 mps 766 mmHg 62%
    10:00 +20°C° 0 mm 2 mps 766 mmHg 57%
    11:00 +21°C° 0 mm 3 mps 766 mmHg 52%
    12:00 +22°C° 0 mm 3 mps 765 mmHg 47%
    13:00 +22°C° 0 mm 3 mps 765 mmHg 50%
    14:00 +21°C° 0 mm 4 mps 765 mmHg 53%
    15:00 +21°C° 0 mm 4 mps 764 mmHg 55%
    16:00 +20°C° 0 mm 3 mps 765 mmHg 63%
    17:00 +18°C° 0 mm 3 mps 765 mmHg 70%
    18:00 +17°C° 0 mm 3 mps 765 mmHg 77%
    19:00 +16°C° 0 mm 2 mps 765 mmHg 79%
    20:00 +16°C° 0 mm 2 mps 766 mmHg 82%
    21:00 +15°C° 0 mm 2 mps 766 mmHg 84%
    22:00 +15°C° 0 mm 2 mps 766 mmHg 85%
    23:00 +15°C° 0 mm 2 mps 766 mmHg 85%

    Day after tomorrow, 25 April, Thursday

    Time Temperature Precipitation Wind Pressure Humidity
    00:00 +14°C° 0 mm 2 mps 765 mmHg 86%
    01:00 +14°C° 0 mm 1 mps 765 mmHg 87%
    02:00 +14°C° 0 mm 1 mps 765 mmHg 87%
    03:00 +14°C° 0 mm 1 mps 765 mmHg 88%
    04:00 +14°C° 0 mm 1 mps 765 mmHg 89%
    05:00 +14°C° 0 mm 1 mps 765 mmHg 89%
    06:00 +14°C° 0 mm 1 mps 765 mmHg 89%
    07:00 +16°C° 0 mm 1 mps 765 mmHg 83%
    08:00 +17°C° 0 mm 2 mps 765 mmHg 76%
    09:00 +19°C° 0 mm 2 mps 765 mmHg 69%
    10:00 +19°C° 0 mm 3 mps 765 mmHg 66%
    11:00 +20°C° 0 mm 3 mps 764 mmHg 62%
    12:00 +21°C° 0 mm 4 mps 764 mmHg 58%
    13:00 +20°C° 0 mm 4 mps 763 mmHg 58%
    14:00 +20°C° 0 mm 4 mps 763 mmHg 59%
    15:00 +20°C° 0 mm 5 mps 762 mmHg 60%
    16:00 +19°C° 0 mm 5 mps 762 mmHg 64%
    17:00 +18°C° 0 mm 4 mps 762 mmHg 68%
    18:00 +17°C° 0 mm 4 mps 762 mmHg 73%
    19:00 +17°C° 0 mm 4 mps 762 mmHg 73%
    20:00 +16°C° 0 mm 5 mps 763 mmHg 74%
    21:00 +16°C° 0 mm 5 mps 763 mmHg 74%
    22:00 +16°C° 0 mm 5 mps 763 mmHg 73%
    23:00 +16°C° 0 mm 5 mps 763 mmHg 73%

    26 April, Friday

    Time Temperature Precipitation Wind Pressure Humidity
    00:00 +16°C° 0 mm 6 mps 763 mmHg 72%
    01:00 +16°C° 0.1 mm 5 mps 762 mmHg 72%
    02:00 +16°C° 0.1 mm 5 mps 762 mmHg 72%
    03:00 +16°C° 0.1 mm 5 mps 762 mmHg 72%
    04:00 +16°C° 0.1 mm 5 mps 762 mmHg 71%
    05:00 +16°C° 0.1 mm 5 mps 763 mmHg 69%
    06:00 +16°C° 0.1 mm 5 mps 763 mmHg 68%
    07:00 +16°C° 0 mm 6 mps 764 mmHg 65%
    08:00 +16°C° 0 mm 6 mps 764 mmHg 62%
    09:00 +16°C° 0 mm 6 mps 765 mmHg 60%
    10:00 +16°C° 0 mm 6 mps 765 mmHg 59%
    11:00 +16°C° 0 mm 6 mps 765 mmHg 58%
    12:00 +15°C° 0 mm 6 mps 765 mmHg 56%
    13:00 +15°C° 0 mm 5 mps 765 mmHg 56%
    14:00 +15°C° 0 mm 5 mps 765 mmHg 56%
    15:00 +15°C° 0 mm 5 mps 765 mmHg 56%
    16:00 +14°C° 0 mm 5 mps 765 mmHg 58%
    17:00 +14°C° 0 mm 4 mps 766 mmHg 61%
    18:00 +13°C° 0 mm 4 mps 766 mmHg 64%
    19:00 +13°C° 0 mm 4 mps 766 mmHg 65%
    20:00 +12°C° 0 mm 3 mps 767 mmHg 67%
    21:00 +12°C° 0 mm 3 mps 767 mmHg 68%
    22:00 +12°C° 0 mm 3 mps 767 mmHg 70%
    23:00 +12°C° 0 mm 2 mps 767 mmHg 71%

    27 April, Saturday

    Time Temperature Precipitation Wind Pressure Humidity
    00:00 +12°C° 0 mm 2 mps 767 mmHg 73%
    01:00 +12°C° 0 mm 2 mps 767 mmHg 74%
    02:00 +12°C° 0 mm 2 mps 767 mmHg 75%
    03:00 +10°C° 0 mm 2 mps 767 mmHg 77%
    04:00 +10°C° 0 mm 2 mps 767 mmHg 77%
    05:00 +10°C° 0 mm 2 mps 768 mmHg 77%
    06:00 +10°C° 0 mm 2 mps 768 mmHg 78%
    07:00 +13°C° 0 mm 2 mps 769 mmHg 71%
    08:00 +14°C° 0 mm 2 mps 769 mmHg 64%
    09:00 +16°C° 0 mm 2 mps 769 mmHg 57%
    10:00 +16°C° 0 mm 2 mps 769 mmHg 56%
    11:00 +17°C° 0 mm 2 mps 769 mmHg 56%
    12:00 +17°C° 0 mm 2 mps 769 mmHg 55%
    13:00 +17°C° 0 mm 2 mps 768 mmHg 55%
    14:00 +17°C° 0 mm 2 mps 768 mmHg 55%
    15:00 +17°C° 0 mm 2 mps 767 mmHg 55%
    16:00 +16°C° 0 mm 2 mps 768 mmHg 60%
    17:00 +15°C° 0 mm 2 mps 768 mmHg 65%
    18:00 +14°C° 0 mm 2 mps 768 mmHg 70%
    19:00 +13°C° 0 mm 2 mps 768 mmHg 73%
    20:00 +13°C° 0 mm 1 mps 768 mmHg 75%
    21:00 +12°C° 0 mm 1 mps 768 mmHg 78%
    22:00 +12°C° 0 mm 1 mps 768 mmHg 79%
    23:00 +12°C° 0 mm 1 mps 768 mmHg 80%

    28 April, Sunday

    Time Temperature Precipitation Wind Pressure Humidity
    00:00 +11°C° 0 mm 0 mps 768 mmHg 81%
    01:00 +11°C° 0 mm 0 mps 768 mmHg 82%
    02:00 +10°C° 0 mm 0 mps 768 mmHg 83%
    03:00 +10°C° 0 mm 0 mps 767 mmHg 84%
    04:00 +10°C° 0 mm 0 mps 768 mmHg 85%
    05:00 +10°C° 0 mm 0 mps 768 mmHg 86%
    06:00 +10°C° 0 mm 0 mps 768 mmHg 86%
    07:00 +13°C° 0 mm 1 mps 768 mmHg 79%
    08:00 +15°C° 0 mm 1 mps 769 mmHg 72%
    09:00 +16°C° 0 mm 1 mps 769 mmHg 66%
    10:00 +17°C° 0 mm 2 mps 769 mmHg 61%
    11:00 +18°C° 0 mm 2 mps 768 mmHg 56%
    12:00 +19°C° 0 mm 2 mps 768 mmHg 52%
    13:00 +19°C° 0 mm 2 mps 767 mmHg 52%
    14:00 +19°C° 0 mm 2 mps 767 mmHg 53%
    15:00 +19°C° 0 mm 2 mps 767 mmHg 53%
    16:00 +18°C° 0 mm 2 mps 767 mmHg 60%
    17:00 +16°C° 0 mm 2 mps 767 mmHg 67%
    18:00 +15°C° 0 mm 1 mps 767 mmHg 73%
    19:00 +15°C° 0 mm 1 mps 768 mmHg 76%
    20:00 +14°C° 0 mm 1 mps 768 mmHg 78%
    21:00 +14°C° 0 mm 1 mps 768 mmHg 81%
    22:00 +14°C° 0 mm 1 mps 768 mmHg 83%
    23:00 +13°C° 0 mm 1 mps 767 mmHg 84%
    Show more